Regional Weather Roundup
Issued by NWS

Home | Current Version | Previous Version | Graphics & Text | Print | Product List | Glossary On
Versions: 1 2 3 4 5 6 7 8 9 10 11 12 13 14 15 16 17 18 19 20 21 22 23 24 25 26 27 28 29 30 31 32 33 34 35 36 37 38 39 40 41 42 43 44 45 46 47 48 49 50
000
ASUS45 KCYS 211210
RWRWY

WYOMING REGIONAL WEATHER ROUNDUP
NATIONAL WEATHER SERVICE CHEYENNE WY
500 AM MST SUN JAN 21 2018

NOTE:  "FAIR" INDICATES FEW OR NO CLOUDS BELOW 12,000 FEET
WITH NO SIGNIFICANT WEATHER AND/OR OBSTRUCTIONS TO VISIBILITY.

WYZ001-211300-
YELLOWSTONE NATIONAL PARK

CITY           SKY/WX    TMP DP  RH WIND       PRES   REMARKS
LK YELLOWSTONE   N/A    -12 -16  82 CALM      29.96R
6HR MIN TEMP: -12; 6HR MAX TEMP:  -4;

W YELLOWSTONE  NOT AVBL

$$
WYZ002>013-054>058-071-098>099-211300-
NORTHERN WYOMING

CITY           SKY/WX    TMP DP  RH WIND       PRES   REMARKS
JACKSON        MOCLDY    10   5  80 NE6       29.97R WCI   0
CODY           FAIR      21  14  74 S5        29.98R WCI  15
GREYBULL       FAIR      21  19  92 SE5       30.00R WCI  15
6HR MIN TEMP:  19; 6HR MAX TEMP:  25;

WORLAND        CLOUDY    21  19  92 SE3       29.99R
6HR MIN TEMP:  20; 6HR MAX TEMP:  26;

SHERIDAN       FAIR      28  17  63 NW5       29.99R WCI  23
6HR MIN TEMP:  22; 6HR MAX TEMP:  28;

BUFFALO        CLOUDY    27  13  55 N3        29.96R
6HR MIN TEMP:  21; 6HR MAX TEMP:  28;

GILLETTE       CLOUDY    23  18  81 W8        29.95R WCI  14
6HR MIN TEMP:  16; 6HR MAX TEMP:  27;

HULETT         FAIR      23  21  93 SW5       29.96S WCI  17
NEWCASTLE      FAIR      27  23  86 NW3       29.95R

$$
WYZ014>020-022>026-101>103-211300-
CENTRAL WYOMING

CITY           SKY/WX    TMP DP  RH WIND       PRES   REMARKS
BIG PINEY      FLURRIES  19  15  84 N10       29.88R WCI   7
6HR MIN TEMP:  19; 6HR MAX TEMP:  21; 6HR PCP: TRACE;

PINEDALE       CLOUDY    18  14  86 W5        29.88R WCI  11
DUBOIS         LGT SNOW  16  12  86 CALM      29.89R
LANDER         LGT SNOW  22  19  89 W7        29.94R FOG     WCI  13
6HR MIN TEMP:  21; 6HR MAX TEMP:  23; 6HR PCP:  0.07;

RIVERTON       CLOUDY    20  16  84 NW6       29.94S WCI  12
6HR MIN TEMP:  19; 6HR MAX TEMP:  23; 6HR PCP:  0.02;

CASPER         CLOUDY    21  20  96 N13       29.92R FOG     WCI   9
6HR MIN TEMP:  21; 6HR MAX TEMP:  23; 6HR PCP:  0.04;

DOUGLAS        LGT SNOW  24  22  91 N9        29.93S FOG     WCI  14
6HR MIN TEMP:  24; 6HR MAX TEMP:  26; 6HR PCP: TRACE;


$$
WYZ021-027>030-104>119-211300-
SOUTHERN WYOMING

CITY           SKY/WX    TMP DP  RH WIND       PRES   REMARKS
EVANSTON       CLOUDY    14  11  87 W7        29.93R WCI   4
6HR MIN TEMP:  13; 6HR MAX TEMP:  17;

FORT BRIDGER   FLURRIES  18  17  95 W14       29.93R WCI   4
ROCK SPRINGS   LGT SNOW  19  14  81 N14       29.87R WCI   6
6HR MIN TEMP:  19; 6HR MAX TEMP:  20; 6HR PCP: TRACE;

DIXON          LGT SNOW  22  20  90 CALM      29.73F
RAWLINS        LGT SNOW  19  15  84 N16       29.80R FOG     WCI   4
6HR MIN TEMP:  19; 6HR MAX TEMP:  21; 6HR PCP: TRACE;

LARAMIE        LGT SNOW  19  15  84 E8        29.75R FOG     WCI   9
6HR MIN TEMP:  19; 6HR MAX TEMP:  25; 6HR PCP:  0.04;

CHEYENNE       LGT SNOW  22  22 100 N9        29.80R FOG     WCI  12
6HR MIN TEMP:  22; 6HR MAX TEMP:  25; 6HR PCP:  0.14;

TORRINGTON     LGT SNOW  27  26  96 NE17      29.88S FOG     WCI  14
6HR MIN TEMP:  27; 6HR MAX TEMP:  29; 6HR PCP: TRACE;


$$



USA.gov is the U.S. government's official web portal to all federal, state and local government web resources and services.